Theta_e
316 318 319 318 319 321 322 323 323 324 325 326 327 327 327 325 323 323 323 323 321 321 321 321 321 326 332 358 358 356 356 355 355 356 353 354 350 353 352 353 352 352 353 352
320 318 318 319 317 319 320 321 322 323 324 325 327 327 328 328 325 323 323 323 322 322 321 321 321 324 327 338 356 359 357 356 356 356 357 355 357 355 355 355 353 354 354 353
321 320 319 320 319 319 318 320 321 321 322 324 326 329 328 326 327 325 323 323 322 321 322 322 323 322 326 328 342 354 360 357 357 358 356 353 353 356 355 354 353 353 352 352
321 320 319 319 320 321 320 319 319 320 322 324 324 328 330 327 326 327 326 323 323 321 321 323 323 324 325 328 332 341 354 355 353 356 350 352 352 353 354 356 355 353 353 352
322 321 321 320 321 321 322 321 319 319 320 322 323 326 327 327 326 326 327 326 325 323 322 322 324 323 326 329 325 324 330 342 340 341 352 351 352 352 352 356 354 356 353 351
320 319 320 320 320 321 321 322 323 320 320 322 322 325 326 327 327 327 326 326 325 324 323 322 324 323 324 328 326 324 322 321 337 335 344 350 347 345 344 343 342 345 347 348
318 319 317 317 317 318 319 322 328 323 322 323 321 323 324 326 326 326 326 326 325 325 324 324 323 324 324 324 327 325 323 323 330 344 341 348 347 350 352 348 344 347 348 348
319 321 319 319 319 319 320 321 327 326 324 322 322 323 323 324 324 325 324 325 326 325 324 324 324 325 323 324 325 326 324 325 327 347 349 350 343 352 349 345 347 347 346 344
322 320 319 318 319 320 321 321 321 326 321 321 321 323 323 324 324 324 324 325 326 326 325 325 324 325 324 323 325 329 327 330 347 350 351 347 344 346 348 349 346 346 345 344
320 321 317 317 318 319 320 322 325 325 325 328 326 327 324 324 325 325 326 326 326 326 326 326 325 325 325 323 327 332 344 347 351 350 349 350 346 349 349 346 345 344 343 341
316 318 318 318 322 321 321 323 322 324 324 324 327 328 331 331 327 327 326 325 325 328 339 338 327 327 325 328 337 348 346 349 346 345 345 345 345 346 346 345 341 338 336 335
314 317 319 318 317 318 321 323 324 327 326 324 327 329 329 332 330 328 329 329 333 343 345 346 337 336 340 346 347 346 346 345 343 343 343 343 342 343 340 336 334 332 331 329
315 318 319 322 321 320 323 321 323 323 323 328 330 330 330 330 336 337 340 340 342 343 343 343 345 345 344 344 344 343 342 342 342 341 339 338 337 334 330 327 325 323 322 322
314 315 316 319 319 318 320 320 321 324 327 327 325 328 329 326 333 333 337 338 338 340 342 342 343 342 341 341 341 340 340 338 334 332 331 329 327 325 324 323 321 320 318 317
315 314 314 315 315 316 317 318 319 322 326 329 327 326 328 331 333 331 334 337 338 339 340 339 340 339 338 338 338 335 333 331 329 327 325 324 323 321 319 317 316 315 314 313
315 315 315 315 316 318 319 319 319 320 324 325 325 323 327 329 329 331 334 335 336 336 337 336 336 336 336 334 332 330 328 326 325 322 320 319 318 317 316 315 313 311 310 309
314 315 314 316 316 316 324 321 321 322 325 324 329 327 326 329 329 331 331 332 332 329 332 332 330 329 328 327 325 324 323 321 320 319 318 316 316 315 315 314 312 309 306 304
314 314 315 315 316 324 323 321 322 325 326 324 327 325 327 328 327 329 329 327 325 324 324 324 324 323 323 322 321 320 319 318 316 315 315 314 314 312 311 309 306 304 304 305
314 315 316 315 322 321 328 326 328 328 326 325 328 324 328 326 322 321 324 323 322 321 320 320 320 320 319 318 317 316 315 314 313 312 311 310 309 306 304 303 304 305 307 309
314 314 314 317 324 330 323 320 320 327 331 328 327 322 327 325 325 320 318 319 318 318 317 316 316 316 315 314 313 312 311 310 310 309 308 306 303 302 302 304 307 308 309 309
316 314 317 317 324 324 315 316 323 330 331 328 328 328 326 326 321 315 316 316 316 315 315 314 314 314 314 313 312 310 309 309 308 307 306 303 303 305 306 308 307 306 306 306
319 322 321 320 324 327 311 318 325 323 324 326 327 327 327 320 316 315 316 315 315 313 313 312 312 312 311 311 311 309 308 307 305 305 304 305 305 307 306 306 306 306 306 305
319 316 316 314 313 309 312 312 313 323 325 324 325 325 320 318 317 314 313 314 313 313 313 312 311 311 310 310 310 309 308 305 303 305 306 306 306 305 305 304 304 304 304 304
313 311 313 313 309 308 310 309 308 313 316 321 320 320 318 315 314 314 313 313 314 313 312 311 311 310 311 311 310 309 306 301 304 305 304 306 305 304 303 303 303 304 303 302
312 311 311 311 308 308 309 308 307 309 311 314 314 312 313 313 312 312 312 312 313 312 311 309 309 308 307 306 304 302 301 302 303 304 305 305 303 302 303 303 303 303 303 303
310 311 313 310 307 310 310 308 307 307 307 308 309 309 309 310 310 311 310 310 310 310 309 309 308 306 305 304 303 301 300 301 304 304 303 303 303 302 301 302 301 300 301 302
Wind_Speed
22 15 22 24 24 27 26 25 28 27 26 28 25 30 25 25 26 20 31 37 42 37 34 32 36 32 34 25 30 32 33 32 32 29 33 29 32 27 27 25 24 23 25 22
18 24 24 21 24 26 26 26 29 26 26 24 24 29 25 25 26 29 26 22 22 31 35 38 38 34 35 37 29 33 36 37 36 35 30 31 26 26 25 23 23 24 25 26
23 25 25 26 24 24 25 26 25 26 25 28 21 24 24 20 25 28 32 32 26 28 30 38 36 42 36 38 40 37 36 38 39 35 31 24 24 22 24 22 24 26 28 29
22 24 27 26 22 25 24 24 26 26 23 19 22 16 21 20 18 19 28 35 32 33 34 32 37 38 43 41 41 40 30 34 34 35 32 32 30 28 26 25 23 28 33 33
20 28 21 22 26 24 22 19 22 25 23 23 28 14 19 20 22 22 22 28 35 39 36 32 26 30 41 39 43 38 39 37 37 36 29 31 31 32 30 26 27 24 22 23
27 32 24 24 23 24 22 16 28 23 18 19 24 22 17 22 20 24 23 32 33 32 35 39 34 27 32 37 37 35 38 40 40 34 34 32 33 21 18 20 17 17 19 18
22 28 27 25 29 27 19 10 12 13 15 17 22 24 19 22 24 21 21 33 40 36 35 37 38 35 29 38 37 36 36 35 36 34 37 31 25 18 24 16 13 13 13 13
15 20 29 23 20 22 23 20 11 12 15 20 25 25 22 27 26 30 17 34 36 38 37 37 37 38 38 37 38 40 38 33 35 36 34 34 25 24 20 13 12 12 11 11
9 18 16 16 18 18 26 8 11 15 22 15 15 27 27 23 28 28 14 9 29 30 35 36 35 36 36 34 34 42 38 32 32 32 28 25 28 20 22 20 21 18 17 16
7 8 12 20 9 22 20 5 14 13 20 9 13 20 19 25 27 25 19 10 11 19 20 23 36 33 37 38 36 36 38 37 34 32 28 28 29 30 27 25 24 19 14 9
5 6 6 5 6 20 17 10 3 6 17 16 9 8 12 22 17 22 17 19 16 14 8 7 22 26 36 35 36 42 38 36 32 32 33 32 33 29 25 19 17 14 12 9
4 5 8 16 12 21 11 20 19 5 13 17 6 4 19 21 9 15 10 19 18 18 14 13 14 32 40 41 37 36 36 35 33 36 35 32 29 26 23 21 18 17 16 14
2 3 7 11 11 3 4 13 15 12 4 20 11 9 11 14 13 12 16 17 16 17 17 17 21 33 37 37 35 33 33 35 36 36 35 31 28 27 25 23 21 18 15 12
6 3 6 10 13 10 8 19 13 13 9 15 15 19 4 10 12 6 11 13 15 20 19 19 23 31 36 35 36 33 39 39 36 36 34 33 32 30 27 24 19 14 10 6
0 3 12 17 19 21 22 22 20 16 16 15 15 14 10 10 8 6 7 12 16 19 23 23 29 34 37 38 39 39 37 37 36 36 36 34 30 26 22 18 14 9 6 4
2 4 14 19 18 18 24 24 22 19 17 14 11 6 2 5 7 3 10 12 14 18 24 31 38 43 42 40 37 37 38 36 34 34 33 29 25 21 17 13 9 5 2 3
14 8 6 7 10 21 10 24 20 18 20 18 18 13 9 10 10 6 16 16 23 23 19 34 39 40 39 38 40 37 34 34 33 31 29 27 23 20 16 9 3 2 5 8
16 8 3 8 11 5 11 13 17 17 19 13 20 13 11 14 14 11 19 27 32 41 32 36 41 39 37 37 36 34 32 31 31 30 27 23 18 15 10 4 2 5 7 8
10 6 2 3 7 7 15 15 7 6 14 14 21 17 16 19 27 17 23 28 30 34 38 37 41 38 37 35 31 32 31 30 28 24 21 16 12 9 4 2 4 5 5 9
6 7 3 3 5 7 8 18 23 12 7 26 26 15 19 24 12 3 26 31 28 33 33 37 37 36 35 28 29 29 26 25 23 17 14 11 7 5 3 3 4 6 7 4
3 2 4 5 5 3 14 25 23 3 3 10 34 38 31 13 13 27 35 33 32 32 32 33 36 35 33 33 30 28 24 23 15 13 8 6 10 6 7 6 3 5 5 6
3 2 1 3 2 2 23 15 7 9 14 9 27 35 26 41 40 32 33 33 33 34 33 35 34 32 28 23 21 21 19 16 12 7 7 7 10 9 5 7 7 8 10 11
1 4 2 4 3 11 14 12 19 19 20 13 10 29 43 44 39 36 35 36 35 34 33 31 28 27 24 22 17 14 13 11 8 5 7 9 6 7 6 9 10 7 8 9
4 6 3 3 5 12 14 12 20 25 29 32 29 34 39 43 40 37 37 37 34 29 26 25 25 21 21 17 13 8 5 1 0 1 5 3 1 6 9 6 7 5 9 8
4 3 3 2 3 6 17 17 21 32 31 33 32 31 34 42 39 42 37 37 32 26 21 18 17 15 15 11 9 8 4 5 1 4 7 3 5 3 3 4 5 7 7 6
7 1 2 3 8 6 15 24 26 38 34 34 38 35 33 38 39 43 39 35 30 25 22 21 17 16 12 8 5 2 1 5 7 4 8 11 5 2 4 9 10 8 6 4
Wind_Direction
221 231 234 228 226 246 256 253 253 251 231 240 241 237 232 218 221 233 231 239 219 226 227 227 219 211 211 202 195 195 190 193 209 206 202 203 204 208 208 209 214 222 237 242
233 233 242 246 251 245 237 249 263 268 271 271 239 243 237 219 208 222 238 244 221 213 223 234 213 211 201 208 207 189 198 199 202 211 208 199 209 209 213 216 212 222 228 236
242 240 239 236 244 250 251 248 247 250 259 268 265 262 242 241 210 214 210 237 222 219 234 223 221 207 201 200 205 198 201 200 203 207 210 203 207 211 217 218 221 225 233 239
248 242 244 254 247 237 240 250 256 253 258 251 249 258 248 228 245 238 213 212 213 211 229 231 221 207 199 198 197 201 190 199 207 207 207 198 202 206 201 207 207 221 229 236
263 288 297 265 243 269 289 267 241 262 245 257 256 253 249 222 225 234 241 226 218 206 216 236 229 207 194 194 198 200 207 209 215 208 199 205 207 205 209 204 213 218 224 240
261 275 267 259 258 273 277 288 300 233 249 244 245 249 231 254 229 220 219 224 225 214 209 221 234 219 198 193 196 199 208 209 212 213 198 206 214 210 211 207 210 215 221 223
280 271 251 252 259 258 242 238 244 232 226 241 234 244 243 238 247 245 245 212 211 210 215 209 219 224 210 199 196 202 217 217 210 210 202 204 208 185 193 204 199 204 205 220
222 259 250 258 234 248 269 246 243 211 225 237 222 236 230 232 253 249 276 223 197 201 207 207 213 210 214 205 201 202 206 209 203 201 198 200 191 183 188 164 160 177 192 201
295 277 327 311 317 242 233 206 249 271 240 238 239 225 231 231 221 239 243 286 186 196 203 200 208 203 201 199 201 192 196 192 183 187 189 186 177 173 169 167 174 171 174 174
21 298 286 262 287 263 251 304 208 222 251 198 261 252 223 215 212 219 211 211 201 189 195 201 201 202 194 199 187 175 170 167 171 175 166 164 167 172 171 175 178 180 183 197
341 258 289 53 249 245 242 211 150 295 252 232 242 267 336 317 194 195 184 181 199 167 106 241 232 204 192 161 160 156 163 165 177 173 175 167 169 172 169 172 163 154 140 126
129 278 276 276 193 238 308 218 207 184 247 248 196 256 292 324 48 162 149 161 148 120 94 59 144 130 123 129 142 151 151 159 169 173 164 161 158 156 159 151 148 147 144 139
329 252 316 313 175 151 321 244 245 220 242 266 281 213 164 317 47 50 105 115 116 110 107 108 109 108 125 134 138 141 148 157 158 156 154 148 146 143 136 130 127 130 132 135
274 253 271 282 306 287 306 297 295 221 214 241 252 284 203 165 119 190 128 130 145 136 131 128 124 121 124 132 140 146 144 139 131 131 138 135 133 132 131 132 132 131 130 119
157 290 302 296 297 290 278 276 279 270 199 241 267 270 273 18 60 118 160 159 153 152 146 148 128 124 134 134 134 132 131 129 127 124 124 127 127 127 127 125 121 117 117 101
211 289 311 297 281 280 261 258 253 257 263 204 247 253 265 132 61 187 146 139 140 139 140 134 126 121 124 130 130 126 122 122 125 121 120 120 118 113 107 103 104 103 54 344
291 288 302 264 342 329 260 235 223 231 233 226 204 210 85 158 138 174 105 110 92 80 118 130 117 118 121 121 118 117 121 123 120 115 112 109 107 105 100 102 96 13 325 316
249 250 229 295 321 240 252 186 212 211 230 204 116 142 155 142 123 126 117 104 102 107 99 92 103 107 108 112 112 116 118 118 113 110 108 108 108 105 102 105 353 325 319 329
215 215 263 274 277 271 42 26 358 271 214 213 130 141 138 121 87 51 103 101 96 99 103 103 107 105 108 114 115 126 116 121 118 113 109 108 110 102 91 8 345 346 37 61
159 188 186 283 280 32 20 341 334 317 218 122 138 144 130 139 117 96 100 108 102 104 100 106 113 112 108 112 118 106 111 109 98 98 99 100 94 75 34 32 69 92 107 184
144 223 222 267 278 53 353 331 314 208 49 92 147 150 155 142 122 127 123 122 123 116 115 119 123 118 120 122 121 112 105 91 92 97 104 72 70 50 75 115 121 119 109 80
219 248 268 246 309 6 341 341 17 307 307 226 146 150 134 122 124 128 131 132 130 127 122 123 122 119 117 112 104 91 86 84 78 73 65 67 84 118 75 97 90 86 85 67
47 16 27 25 13 309 340 339 343 31 70 108 103 122 123 123 126 129 128 132 132 130 127 125 121 113 109 99 99 87 68 56 29 30 71 92 114 75 85 103 96 81 92 88
37 24 77 207 340 347 7 12 37 57 66 105 101 115 125 121 127 130 135 136 134 132 125 124 116 113 111 111 110 105 69 22 248 19 54 128 82 100 121 128 128 127 121 98
343 19 64 71 319 333 42 47 54 75 83 98 109 108 118 127 127 132 130 132 130 131 119 110 109 119 123 126 133 137 181 143 167 128 136 115 108 126 114 105 102 97 112 130
357 244 37 77 314 48 65 66 69 77 80 84 97 92 97 112 116 125 121 119 120 122 133 136 132 117 114 116 101 81 125 153 133 151 133 129 106 162 71 105 100 86 86 93